DAL864 MPTO-KMIA

Flight info

Callsign DAL864
Flight time 2h 37m
Altitude 34000
Route EGETA3A EGETA DCT DAGAS UM542 COLBY/N0467F360 UM542 SIA UM347 EPSIM DCT ZEUSS VIICE2
Aircraft A321/M-SDE3FGHIRWY/LB1

Departure

Time 2026-05-07 17:58
Airport Tocumen International Airport (MPTO)

Arrival

Time 2026-05-07 20:36
Airport Miami International Airport (KMIA)
Time Latitude Longitude Altitude Speed Heading
2026-05-07 17:49 9.06757 -79.38488 46 ft 0 kts 328°
2026-05-07 17:49 9.06756 -79.38488 46 ft 1 kts 329°
2026-05-07 17:50 9.06736 -79.38474 43 ft 4 kts 320°
2026-05-07 17:50 9.06719 -79.38455 45 ft 4 kts 293°
2026-05-07 17:50 9.06716 -79.38436 42 ft 3 kts 216°
2026-05-07 17:50 9.06719 -79.38434 45 ft 0 kts 210°
2026-05-07 17:52 9.06700 -79.38445 43 ft 8 kts 210°
2026-05-07 17:53 9.06625 -79.38489 45 ft 17 kts 211°
2026-05-07 17:53 9.06525 -79.38545 44 ft 16 kts 207°
2026-05-07 17:53 9.06428 -79.38601 44 ft 16 kts 217°
2026-05-07 17:53 9.06334 -79.38651 43 ft 15 kts 192°
2026-05-07 17:54 9.06240 -79.38695 43 ft 15 kts 209°
2026-05-07 17:54 9.06150 -79.38747 43 ft 15 kts 210°
2026-05-07 17:54 9.06052 -79.38802 42 ft 17 kts 209°
2026-05-07 17:54 9.05942 -79.38865 41 ft 20 kts 209°
2026-05-07 17:55 9.05815 -79.38936 41 ft 22 kts 209°
2026-05-07 17:55 9.05677 -79.39014 38 ft 16 kts 208°
2026-05-07 17:55 9.05600 -79.38990 39 ft 12 kts 164°
2026-05-07 17:55 9.05509 -79.39027 39 ft 18 kts 209°
2026-05-07 17:56 9.05369 -79.39106 38 ft 27 kts 209°
2026-05-07 17:56 9.05205 -79.39200 38 ft 27 kts 210°
2026-05-07 17:56 9.05045 -79.39292 37 ft 26 kts 209°
2026-05-07 17:56 9.04891 -79.39378 37 ft 20 kts 204°
2026-05-07 17:57 9.04808 -79.39325 35 ft 15 kts 122°
2026-05-07 17:57 9.04780 -79.39271 37 ft 8 kts 99°
2026-05-07 17:57 9.04868 -79.39199 37 ft 25 kts 32°
2026-05-07 17:57 9.05239 -79.38990 39 ft 94 kts 30°
2026-05-07 17:58 9.05978 -79.38570 44 ft 147 kts 29°
2026-05-07 17:58 9.06982 -79.37996 166 ft 176 kts 31°
2026-05-07 17:58 9.08027 -79.37346 739 ft 175 kts 36°
2026-05-07 17:58 9.08988 -79.36600 1326 ft 173 kts 37°
2026-05-07 17:59 9.09939 -79.35866 1955 ft 171 kts 36°
2026-05-07 17:59 9.10879 -79.35147 2452 ft 171 kts 36°
2026-05-07 17:59 9.11855 -79.34404 2805 ft 179 kts 37°
2026-05-07 17:59 9.12871 -79.33634 3214 ft 185 kts 36°
2026-05-07 18:00 9.13928 -79.32823 3433 ft 199 kts 37°
2026-05-07 18:00 9.15060 -79.31929 3642 ft 213 kts 38°
2026-05-07 18:00 9.16246 -79.30961 3911 ft 224 kts 38°
2026-05-07 18:00 9.17496 -79.29912 4091 ft 245 kts 40°
2026-05-07 18:01 9.18866 -79.28738 4340 ft 267 kts 39°
2026-05-07 18:01 9.20300 -79.27653 5456 ft 248 kts 36°
2026-05-07 18:01 9.21702 -79.26664 6267 ft 246 kts 36°
2026-05-07 18:01 9.23110 -79.25671 6886 ft 248 kts 36°
2026-05-07 18:02 9.25942 -79.23615 8052 ft 253 kts 37°
2026-05-07 18:02 9.27368 -79.22554 8622 ft 256 kts 38°
2026-05-07 18:02 9.28803 -79.21476 9221 ft 258 kts 38°
2026-05-07 18:03 9.30247 -79.20384 9822 ft 260 kts 39°
2026-05-07 18:03 9.31704 -79.19280 10365 ft 263 kts 39°
2026-05-07 18:03 9.33171 -79.18168 10928 ft 264 kts 39°
2026-05-07 18:03 9.34639 -79.17054 11491 ft 265 kts 39°
2026-05-07 18:04 9.36118 -79.15933 12043 ft 266 kts 40°
2026-05-07 18:04 9.37601 -79.14810 12625 ft 267 kts 40°
2026-05-07 18:04 9.39129 -79.13647 12827 ft 284 kts 40°
2026-05-07 18:04 9.40757 -79.12402 12958 ft 302 kts 40°
2026-05-07 18:05 9.42485 -79.11084 13083 ft 320 kts 40°
2026-05-07 18:05 9.44336 -79.09724 13209 ft 338 kts 35°
2026-05-07 18:05 9.46484 -79.08605 13337 ft 357 kts 24°
2026-05-07 18:05 9.48931 -79.07889 13463 ft 376 kts 13°
2026-05-07 18:06 9.51590 -79.07667 13594 ft 393 kts
2026-05-07 18:06 9.54367 -79.07748 13808 ft 403 kts
2026-05-07 18:06 9.57183 -79.07828 14151 ft 407 kts
2026-05-07 18:06 9.60021 -79.07901 14533 ft 409 kts
2026-05-07 18:07 9.62878 -79.07974 14920 ft 412 kts
2026-05-07 18:07 9.65751 -79.08050 15315 ft 414 kts
2026-05-07 18:07 9.68634 -79.08128 15709 ft 416 kts
2026-05-07 18:07 9.71539 -79.08206 16109 ft 418 kts
2026-05-07 18:08 9.74450 -79.08282 16493 ft 420 kts
2026-05-07 18:08 9.77382 -79.08357 16872 ft 422 kts
2026-05-07 18:08 9.80326 -79.08431 17243 ft 425 kts
2026-05-07 18:08 9.83291 -79.08510 17629 ft 427 kts
2026-05-07 18:09 9.86268 -79.08593 18004 ft 429 kts
2026-05-07 18:09 9.89262 -79.08676 18345 ft 432 kts
2026-05-07 18:09 9.92269 -79.08757 18663 ft 433 kts
2026-05-07 18:09 9.95289 -79.08836 18995 ft 435 kts
2026-05-07 18:10 9.98323 -79.08914 19332 ft 436 kts
2026-05-07 18:10 10.01361 -79.08992 19668 ft 438 kts
2026-05-07 18:10 10.04408 -79.09071 19994 ft 439 kts
2026-05-07 18:10 10.07431 -79.09149 20315 ft 441 kts
2026-05-07 18:11 10.10499 -79.09229 20632 ft 442 kts
2026-05-07 18:11 10.12583 -79.09285 20846 ft 443 kts
2026-05-07 18:11 10.16677 -79.09396 21254 ft 445 kts
2026-05-07 18:11 10.19775 -79.09479 21553 ft 446 kts
2026-05-07 18:12 10.22889 -79.09562 21844 ft 448 kts
2026-05-07 18:12 10.26010 -79.09644 22138 ft 449 kts
2026-05-07 18:12 10.29136 -79.09728 22428 ft 451 kts
2026-05-07 18:12 10.32279 -79.09816 22710 ft 452 kts
2026-05-07 18:13 10.35431 -79.09901 22990 ft 454 kts
2026-05-07 18:13 10.38589 -79.09985 23262 ft 455 kts
2026-05-07 18:13 10.41761 -79.10065 23518 ft 457 kts
2026-05-07 18:13 10.44943 -79.10148 23729 ft 458 kts
2026-05-07 18:14 10.48135 -79.10232 23922 ft 460 kts
2026-05-07 18:14 10.51343 -79.10317 24118 ft 461 kts
2026-05-07 18:14 10.54560 -79.10401 24317 ft 463 kts
2026-05-07 18:14 10.57739 -79.10486 24507 ft 464 kts
2026-05-07 18:15 10.60973 -79.10574 24715 ft 466 kts
2026-05-07 18:15 10.64218 -79.10663 24909 ft 467 kts
2026-05-07 18:15 10.67471 -79.10750 25110 ft 469 kts
2026-05-07 18:15 10.70736 -79.10835 25310 ft 470 kts
2026-05-07 18:16 10.74014 -79.10918 25513 ft 472 kts
2026-05-07 18:16 10.77298 -79.11006 25711 ft 473 kts
2026-05-07 18:16 10.80600 -79.11096 25913 ft 475 kts
2026-05-07 18:16 10.83905 -79.11185 26105 ft 476 kts
2026-05-07 18:17 10.87218 -79.11273 26292 ft 477 kts
2026-05-07 18:17 10.90544 -79.11359 26511 ft 478 kts
2026-05-07 18:17 10.93864 -79.11445 26765 ft 477 kts
2026-05-07 18:17 10.97180 -79.11535 27026 ft 476 kts
2026-05-07 18:18 11.00492 -79.11624 27275 ft 476 kts
2026-05-07 18:18 11.03801 -79.11714 27532 ft 476 kts
2026-05-07 18:18 11.07117 -79.11803 27786 ft 475 kts
2026-05-07 18:18 11.10419 -79.11890 28042 ft 475 kts
2026-05-07 18:19 11.13720 -79.11978 28335 ft 474 kts
2026-05-07 18:19 11.17010 -79.12068 28617 ft 473 kts
2026-05-07 18:19 11.19187 -79.12127 28789 ft 472 kts
2026-05-07 18:19 11.23578 -79.12248 29143 ft 472 kts
2026-05-07 18:20 11.25751 -79.12309 29313 ft 471 kts
2026-05-07 18:20 11.29024 -79.12397 29574 ft 471 kts
2026-05-07 18:20 11.32301 -79.12480 29837 ft 470 kts
2026-05-07 18:20 11.35568 -79.12561 30078 ft 470 kts
2026-05-07 18:21 11.38837 -79.12645 30295 ft 470 kts
2026-05-07 18:21 11.42105 -79.12730 30515 ft 469 kts
2026-05-07 18:21 11.45367 -79.12820 30746 ft 469 kts
2026-05-07 18:21 11.48628 -79.12912 30987 ft 468 kts
2026-05-07 18:22 11.51874 -79.13004 31261 ft 467 kts
2026-05-07 18:22 11.54029 -79.13063 31434 ft 466 kts
2026-05-07 18:22 11.58363 -79.13181 31764 ft 466 kts
2026-05-07 18:22 11.61604 -79.13268 32000 ft 465 kts
2026-05-07 18:23 11.64824 -79.13070 32237 ft 462 kts 11°
2026-05-07 18:23 11.67949 -79.12519 32477 ft 462 kts 12°
2026-05-07 18:23 11.71113 -79.11951 32726 ft 462 kts 12°
2026-05-07 18:23 11.74280 -79.11388 32977 ft 461 kts 12°
2026-05-07 18:24 11.77442 -79.10833 33225 ft 461 kts 12°
2026-05-07 18:24 11.80610 -79.10280 33478 ft 461 kts 12°
2026-05-07 18:24 11.83768 -79.09730 33725 ft 461 kts 12°
2026-05-07 18:24 11.86932 -79.09174 33895 ft 461 kts 12°
2026-05-07 18:25 11.90093 -79.08618 33936 ft 461 kts 12°
2026-05-07 18:25 11.96413 -79.07507 33935 ft 460 kts 12°
2026-05-07 18:26 12.02720 -79.06389 33934 ft 460 kts 12°
2026-05-07 18:26 12.09022 -79.05276 33934 ft 459 kts 12°
2026-05-07 18:27 12.15314 -79.04175 33936 ft 458 kts 12°
2026-05-07 18:27 12.21597 -79.03074 33937 ft 457 kts 12°
2026-05-07 18:28 12.27866 -79.01959 33936 ft 457 kts 11°
2026-05-07 18:28 12.34082 -79.00849 33937 ft 457 kts 12°
2026-05-07 18:29 12.40345 -78.99741 33942 ft 457 kts 11°
2026-05-07 18:29 12.46604 -78.98637 33942 ft 457 kts 12°
2026-05-07 18:30 12.52864 -78.97526 33939 ft 456 kts 11°
2026-05-07 18:30 12.59114 -78.96421 33942 ft 456 kts 12°
2026-05-07 18:31 12.65361 -78.95320 33942 ft 455 kts 12°
2026-05-07 18:31 12.71603 -78.94215 33943 ft 455 kts 12°
2026-05-07 18:32 12.77850 -78.93107 33939 ft 455 kts 11°
2026-05-07 18:32 12.84093 -78.91994 33944 ft 455 kts 12°
2026-05-07 18:33 12.90336 -78.90883 33945 ft 455 kts 11°
2026-05-07 18:33 12.96569 -78.89780 33944 ft 454 kts 11°
2026-05-07 18:34 13.02796 -78.88677 33944 ft 454 kts 11°
2026-05-07 18:34 13.09022 -78.87574 33945 ft 454 kts 11°
2026-05-07 18:35 13.15244 -78.86467 33948 ft 455 kts 11°
2026-05-07 18:35 13.21472 -78.85348 33948 ft 455 kts 11°
2026-05-07 18:36 13.27703 -78.84232 33954 ft 454 kts 11°
2026-05-07 18:36 13.33899 -78.83133 33951 ft 454 kts 11°
2026-05-07 18:37 13.40123 -78.82028 34200 ft 453 kts 11°
2026-05-07 18:37 13.43234 -78.81473 34419 ft 454 kts 11°
2026-05-07 18:37 13.46339 -78.80915 34677 ft 452 kts 11°
2026-05-07 18:37 13.49437 -78.80358 34875 ft 453 kts 11°
2026-05-07 18:38 13.52540 -78.79804 35132 ft 452 kts 11°
2026-05-07 18:38 13.55640 -78.79256 35336 ft 452 kts 11°
2026-05-07 18:38 13.58732 -78.78708 35553 ft 452 kts 11°
2026-05-07 18:38 13.61833 -78.78154 35757 ft 452 kts 10°
2026-05-07 18:39 13.64933 -78.77597 35922 ft 453 kts 11°
2026-05-07 18:39 13.71136 -78.76480 35959 ft 453 kts 10°
2026-05-07 18:40 13.77334 -78.75372 35959 ft 452 kts 10°
2026-05-07 18:40 13.83534 -78.74265 35959 ft 452 kts 10°
2026-05-07 18:41 13.89728 -78.73157 35962 ft 451 kts 10°
2026-05-07 18:41 13.95921 -78.72044 35969 ft 452 kts 10°
2026-05-07 18:42 14.02121 -78.70931 35974 ft 452 kts 10°
2026-05-07 18:42 14.08325 -78.69824 35968 ft 452 kts 10°
2026-05-07 18:43 14.14526 -78.68718 35971 ft 452 kts 10°
2026-05-07 18:43 14.20724 -78.67604 35973 ft 452 kts 10°
2026-05-07 18:44 14.26923 -78.66481 35975 ft 452 kts 10°
2026-05-07 18:44 14.33120 -78.65367 35969 ft 452 kts 10°
2026-05-07 18:45 14.39316 -78.64249 35975 ft 452 kts 10°
2026-05-07 18:45 14.45514 -78.63134 35977 ft 452 kts 10°
2026-05-07 18:46 14.51712 -78.62026 35979 ft 452 kts 10°
2026-05-07 18:46 14.57905 -78.60911 35979 ft 452 kts 10°
2026-05-07 18:47 14.64097 -78.59797 35976 ft 452 kts 10°
2026-05-07 18:47 14.70290 -78.58683 35972 ft 452 kts 10°
2026-05-07 18:48 14.76481 -78.57561 35974 ft 452 kts
2026-05-07 18:48 14.82677 -78.56436 35979 ft 451 kts
2026-05-07 18:49 14.88825 -78.55324 35976 ft 451 kts
2026-05-07 18:49 14.95009 -78.54217 35985 ft 451 kts
2026-05-07 18:50 15.01185 -78.53106 35991 ft 450 kts
2026-05-07 18:50 15.07363 -78.52033 35989 ft 450 kts
2026-05-07 18:51 15.13551 -78.50988 35983 ft 450 kts
2026-05-07 18:51 15.19730 -78.49943 35981 ft 450 kts
2026-05-07 18:52 15.25908 -78.48881 35984 ft 450 kts
2026-05-07 18:52 15.32081 -78.47822 35987 ft 449 kts
2026-05-07 18:53 15.38250 -78.46767 35990 ft 449 kts
2026-05-07 18:53 15.44414 -78.45708 35991 ft 449 kts
2026-05-07 18:54 15.50577 -78.44648 35989 ft 448 kts
2026-05-07 18:54 15.56734 -78.43590 35989 ft 449 kts
2026-05-07 18:55 15.62855 -78.42539 35992 ft 449 kts
2026-05-07 18:55 15.69017 -78.41482 35991 ft 449 kts
2026-05-07 18:56 15.75181 -78.40429 35992 ft 449 kts
2026-05-07 18:56 15.81334 -78.39364 35994 ft 448 kts
2026-05-07 18:57 15.87488 -78.38296 35987 ft 448 kts
2026-05-07 18:57 15.93635 -78.37236 35996 ft 448 kts
2026-05-07 18:58 15.99783 -78.36180 35995 ft 448 kts
2026-05-07 18:58 16.05928 -78.35126 35995 ft 448 kts
2026-05-07 18:59 16.12074 -78.34057 35996 ft 448 kts
2026-05-07 18:59 16.18220 -78.32996 35993 ft 447 kts
2026-05-07 19:00 16.24369 -78.31935 35991 ft 447 kts
2026-05-07 19:00 16.30504 -78.30879 36003 ft 447 kts
2026-05-07 19:01 16.36642 -78.29817 36005 ft 447 kts
2026-05-07 19:01 16.42734 -78.28759 36001 ft 447 kts
2026-05-07 19:02 16.48865 -78.27693 35999 ft 447 kts
2026-05-07 19:02 16.54998 -78.26627 36001 ft 447 kts
2026-05-07 19:03 16.61132 -78.25560 36001 ft 447 kts
2026-05-07 19:03 16.67271 -78.24497 36002 ft 447 kts
2026-05-07 19:04 16.73400 -78.23431 36000 ft 447 kts
2026-05-07 19:04 16.79528 -78.22364 36001 ft 446 kts
2026-05-07 19:05 16.85654 -78.21302 36005 ft 446 kts
2026-05-07 19:05 16.91780 -78.20239 36004 ft 446 kts
2026-05-07 19:06 16.97904 -78.19166 36002 ft 446 kts
2026-05-07 19:06 17.06059 -78.17746 36006 ft 446 kts
2026-05-07 19:07 17.12182 -78.16676 36009 ft 446 kts
2026-05-07 19:07 17.19301 -78.15425 36009 ft 446 kts
2026-05-07 19:08 17.24431 -78.14534 36006 ft 446 kts
2026-05-07 19:08 17.30557 -78.13470 36008 ft 446 kts
2026-05-07 19:09 17.36680 -78.12403 36001 ft 446 kts
2026-05-07 19:09 17.42803 -78.11325 36000 ft 446 kts
2026-05-07 19:10 17.48929 -78.10248 36003 ft 446 kts
2026-05-07 19:10 17.55007 -78.09189 36006 ft 446 kts
2026-05-07 19:11 17.61127 -78.08117 36007 ft 446 kts
2026-05-07 19:11 17.67240 -78.07038 36005 ft 446 kts
2026-05-07 19:12 17.73360 -78.05961 36007 ft 445 kts
2026-05-07 19:12 17.79478 -78.04889 36004 ft 445 kts
2026-05-07 19:13 17.85594 -78.03816 35999 ft 446 kts
2026-05-07 19:13 17.91707 -78.02729 35997 ft 446 kts
2026-05-07 19:14 17.97827 -78.01644 36001 ft 446 kts
2026-05-07 19:14 18.03943 -78.00568 36003 ft 446 kts
2026-05-07 19:15 18.10065 -77.99491 36001 ft 446 kts
2026-05-07 19:15 18.16146 -77.98424 36000 ft 446 kts
2026-05-07 19:16 18.22270 -77.97342 35998 ft 446 kts
2026-05-07 19:16 18.28396 -77.96261 35986 ft 446 kts
2026-05-07 19:17 18.34517 -77.95174 35986 ft 446 kts
2026-05-07 19:17 18.40643 -77.94088 35980 ft 447 kts
2026-05-07 19:18 18.46780 -77.92998 35973 ft 447 kts
2026-05-07 19:18 18.52956 -77.92618 35970 ft 445 kts 355°
2026-05-07 19:19 18.59144 -77.93086 35969 ft 446 kts 355°
2026-05-07 19:19 18.65340 -77.93526 35975 ft 446 kts 355°
2026-05-07 19:20 18.71538 -77.93957 35985 ft 447 kts 355°
2026-05-07 19:20 18.77736 -77.94397 36007 ft 446 kts 355°
2026-05-07 19:21 18.83931 -77.94847 36015 ft 445 kts 355°
2026-05-07 19:21 18.90108 -77.95300 36021 ft 445 kts 355°
2026-05-07 19:22 18.96278 -77.95746 36015 ft 444 kts 355°
2026-05-07 19:22 19.02453 -77.96192 36013 ft 445 kts 355°
2026-05-07 19:23 19.08634 -77.96640 36013 ft 445 kts 355°
2026-05-07 19:23 19.14816 -77.97090 36012 ft 446 kts 355°
2026-05-07 19:24 19.21006 -77.97549 36011 ft 446 kts 355°
2026-05-07 19:24 19.27194 -77.98010 36014 ft 446 kts 355°
2026-05-07 19:25 19.33351 -77.98451 36013 ft 446 kts 355°
2026-05-07 19:25 19.39554 -77.98895 36015 ft 446 kts 355°
2026-05-07 19:26 19.45754 -77.99349 36015 ft 447 kts 355°
2026-05-07 19:26 19.51964 -77.99811 36013 ft 447 kts 355°
2026-05-07 19:27 19.58174 -78.00265 36016 ft 447 kts 355°
2026-05-07 19:27 19.64381 -78.00717 36015 ft 447 kts 355°
2026-05-07 19:28 19.70599 -78.01167 36017 ft 448 kts 355°
2026-05-07 19:28 19.76818 -78.01616 36019 ft 448 kts 355°
2026-05-07 19:29 19.83014 -78.02252 36019 ft 447 kts 349°
2026-05-07 19:29 19.89149 -78.03372 36019 ft 447 kts 350°
2026-05-07 19:30 19.95288 -78.04478 36018 ft 447 kts 350°
2026-05-07 19:30 20.01427 -78.05587 36019 ft 448 kts 350°
2026-05-07 19:31 20.07531 -78.06693 36023 ft 448 kts 349°
2026-05-07 19:31 20.13668 -78.07802 36026 ft 447 kts 350°
2026-05-07 19:32 20.19807 -78.08906 36027 ft 447 kts 350°
2026-05-07 19:32 20.25946 -78.10012 36026 ft 447 kts 350°
2026-05-07 19:33 20.32080 -78.11122 36025 ft 447 kts 349°
2026-05-07 19:33 20.38212 -78.12239 36025 ft 447 kts 349°
2026-05-07 19:34 20.44339 -78.13352 36030 ft 447 kts 349°
2026-05-07 19:34 20.50466 -78.14465 36028 ft 446 kts 349°
2026-05-07 19:35 20.56594 -78.15582 36025 ft 446 kts 349°
2026-05-07 19:35 20.62719 -78.16693 36025 ft 446 kts 349°
2026-05-07 19:36 20.68839 -78.17805 36024 ft 446 kts 349°
2026-05-07 19:36 20.74958 -78.18918 36031 ft 446 kts 349°
2026-05-07 19:37 20.81073 -78.20036 36027 ft 446 kts 349°
2026-05-07 19:37 20.87185 -78.21155 36027 ft 445 kts 349°
2026-05-07 19:38 20.93293 -78.22266 36025 ft 445 kts 349°
2026-05-07 19:38 20.99400 -78.23382 36024 ft 445 kts 349°
2026-05-07 19:39 21.05504 -78.24504 36022 ft 445 kts 349°
2026-05-07 19:39 21.11610 -78.25620 36029 ft 445 kts 349°
2026-05-07 19:40 21.17711 -78.26738 36022 ft 445 kts 349°
2026-05-07 19:40 21.23809 -78.27864 36020 ft 445 kts 349°
2026-05-07 19:41 21.29916 -78.28982 36018 ft 445 kts 349°
2026-05-07 19:41 21.35977 -78.30092 36018 ft 445 kts 349°
2026-05-07 19:42 21.42076 -78.31216 36023 ft 444 kts 349°
2026-05-07 19:42 21.48170 -78.32344 36023 ft 444 kts 349°
2026-05-07 19:43 21.54250 -78.33469 36019 ft 444 kts 349°
2026-05-07 19:43 21.60338 -78.34588 36017 ft 443 kts 349°
2026-05-07 19:44 21.66418 -78.35703 36015 ft 443 kts 349°
2026-05-07 19:44 21.72498 -78.36822 36016 ft 443 kts 349°
2026-05-07 19:45 21.78575 -78.37947 36018 ft 443 kts 349°
2026-05-07 19:45 21.84648 -78.39072 36018 ft 442 kts 349°
2026-05-07 19:46 21.90716 -78.40190 36018 ft 442 kts 349°
2026-05-07 19:46 21.96779 -78.41314 36018 ft 442 kts 349°
2026-05-07 19:47 22.02836 -78.42446 36014 ft 442 kts 349°
2026-05-07 19:47 22.08901 -78.43576 36017 ft 442 kts 349°
2026-05-07 19:48 22.14957 -78.44700 36017 ft 442 kts 349°
2026-05-07 19:48 22.21014 -78.45822 36022 ft 441 kts 349°
2026-05-07 19:49 22.27065 -78.46947 36021 ft 441 kts 349°
2026-05-07 19:49 22.33119 -78.48075 36025 ft 441 kts 349°
2026-05-07 19:50 22.39168 -78.49205 36028 ft 441 kts 349°
2026-05-07 19:50 22.45214 -78.50336 36033 ft 441 kts 349°
2026-05-07 19:51 22.51223 -78.51459 36031 ft 441 kts 349°
2026-05-07 19:51 22.57269 -78.52586 36035 ft 441 kts 349°
2026-05-07 19:52 22.63311 -78.53717 36031 ft 441 kts 349°
2026-05-07 19:52 22.69354 -78.54853 36037 ft 441 kts 349°
2026-05-07 19:53 22.75394 -78.55984 36036 ft 440 kts 349°
2026-05-07 19:53 22.81431 -78.57115 36034 ft 440 kts 348°
2026-05-07 19:54 22.87432 -78.58244 36039 ft 440 kts 349°
2026-05-07 19:54 22.93463 -78.59377 36037 ft 440 kts 349°
2026-05-07 19:55 22.99491 -78.60506 36036 ft 440 kts 349°
2026-05-07 19:55 23.04545 -78.61454 36037 ft 440 kts 348°
2026-05-07 19:56 23.10534 -78.62590 36040 ft 440 kts 348°
2026-05-07 19:56 23.16566 -78.63732 36039 ft 440 kts 348°
2026-05-07 19:57 23.22598 -78.64868 36037 ft 440 kts 348°
2026-05-07 19:57 23.28624 -78.66004 36036 ft 440 kts 348°
2026-05-07 19:58 23.34648 -78.67148 36048 ft 439 kts 348°
2026-05-07 19:58 23.40673 -78.68291 36046 ft 439 kts 348°
2026-05-07 19:59 23.46656 -78.69420 36039 ft 439 kts 348°
2026-05-07 19:59 23.52685 -78.70558 36039 ft 439 kts 348°
2026-05-07 20:00 23.58705 -78.71704 36039 ft 439 kts 348°
2026-05-07 20:00 23.64724 -78.72849 36040 ft 439 kts 348°
2026-05-07 20:01 23.70741 -78.73994 36045 ft 439 kts 348°
2026-05-07 20:01 23.76761 -78.75144 36046 ft 439 kts 348°
2026-05-07 20:02 23.82777 -78.76300 36043 ft 439 kts 348°
2026-05-07 20:02 23.88794 -78.77449 36043 ft 439 kts 348°
2026-05-07 20:03 23.94812 -78.78594 36041 ft 439 kts 348°
2026-05-07 20:03 24.00690 -78.80245 36042 ft 434 kts 334°
2026-05-07 20:04 24.05914 -78.83508 36038 ft 432 kts 327°
2026-05-07 20:04 24.11029 -78.86897 36034 ft 433 kts 327°
2026-05-07 20:05 24.16190 -78.90297 36033 ft 433 kts 327°
2026-05-07 20:05 24.21384 -78.93724 36033 ft 433 kts 327°
2026-05-07 20:06 24.26508 -78.97113 36034 ft 433 kts 327°
2026-05-07 20:06 24.31663 -79.00543 36034 ft 433 kts 327°
2026-05-07 20:07 24.36818 -79.03966 36034 ft 433 kts 327°
2026-05-07 20:07 24.41971 -79.07389 36036 ft 433 kts 327°
2026-05-07 20:08 24.47132 -79.10816 36035 ft 433 kts 327°
2026-05-07 20:08 24.52287 -79.14241 36036 ft 433 kts 327°
2026-05-07 20:09 24.57426 -79.17673 35178 ft 432 kts 327°
2026-05-07 20:09 24.60000 -79.19395 34091 ft 434 kts 327°
2026-05-07 20:10 24.65193 -79.22868 31732 ft 436 kts 327°
2026-05-07 20:10 24.67763 -79.24585 31203 ft 423 kts 327°
2026-05-07 20:10 24.70190 -79.26200 30805 ft 407 kts 327°
2026-05-07 20:10 24.72578 -79.27790 30297 ft 396 kts 327°
2026-05-07 20:11 24.74930 -79.29358 29750 ft 384 kts 327°
2026-05-07 20:11 24.77157 -79.30846 29274 ft 378 kts 327°
2026-05-07 20:11 24.79405 -79.32350 28799 ft 378 kts 327°
2026-05-07 20:11 24.81671 -79.33870 28281 ft 375 kts 327°
2026-05-07 20:12 24.83873 -79.35351 27795 ft 375 kts 327°
2026-05-07 20:12 24.86091 -79.36843 27311 ft 372 kts 327°
2026-05-07 20:12 24.88298 -79.38326 26828 ft 370 kts 327°
2026-05-07 20:12 24.90487 -79.39794 26362 ft 368 kts 327°
2026-05-07 20:13 24.92669 -79.41259 25894 ft 366 kts 327°
2026-05-07 20:13 24.94833 -79.42713 25452 ft 363 kts 327°
2026-05-07 20:13 24.96990 -79.44162 25003 ft 362 kts 326°
2026-05-07 20:13 24.99133 -79.45600 24556 ft 360 kts 326°
2026-05-07 20:14 25.01266 -79.47031 24131 ft 358 kts 326°
2026-05-07 20:14 25.03390 -79.48459 23697 ft 357 kts 326°
2026-05-07 20:14 25.05503 -79.49885 23207 ft 355 kts 326°
2026-05-07 20:14 25.07601 -79.51300 22774 ft 352 kts 327°
2026-05-07 20:15 25.09677 -79.52698 22342 ft 348 kts 327°
2026-05-07 20:15 25.11738 -79.54087 21916 ft 346 kts 327°
2026-05-07 20:15 25.13782 -79.55467 21482 ft 344 kts 327°
2026-05-07 20:15 25.15816 -79.56839 21054 ft 341 kts 327°
2026-05-07 20:16 25.17839 -79.58202 20619 ft 340 kts 328°
2026-05-07 20:16 25.19869 -79.59570 20182 ft 338 kts 328°
2026-05-07 20:16 25.21871 -79.60922 19747 ft 337 kts 328°
2026-05-07 20:16 25.23867 -79.62269 19309 ft 336 kts 328°
2026-05-07 20:17 25.25834 -79.63594 18880 ft 335 kts 328°
2026-05-07 20:17 25.27824 -79.64937 18449 ft 335 kts 328°
2026-05-07 20:17 25.29837 -79.66297 17959 ft 334 kts 328°
2026-05-07 20:17 25.31812 -79.67638 17529 ft 332 kts 328°
2026-05-07 20:18 25.33749 -79.68955 17110 ft 330 kts 328°
2026-05-07 20:18 25.35703 -79.70280 16701 ft 328 kts 328°
2026-05-07 20:18 25.37626 -79.71627 16335 ft 325 kts 323°
2026-05-07 20:18 25.39308 -79.73276 15977 ft 323 kts 312°
2026-05-07 20:19 25.40718 -79.75291 15607 ft 339 kts 306°
2026-05-07 20:19 25.42093 -79.77438 15209 ft 343 kts 306°
2026-05-07 20:19 25.43470 -79.79588 14819 ft 343 kts 306°
2026-05-07 20:19 25.44846 -79.81736 14425 ft 341 kts 306°
2026-05-07 20:20 25.46218 -79.83873 14036 ft 340 kts 306°
2026-05-07 20:20 25.47585 -79.86007 13611 ft 339 kts 306°
2026-05-07 20:20 25.48945 -79.88131 13216 ft 338 kts 306°
2026-05-07 20:20 25.50301 -79.90251 12827 ft 337 kts 306°
2026-05-07 20:21 25.51653 -79.92368 12446 ft 335 kts 306°
2026-05-07 20:21 25.52998 -79.94474 12062 ft 334 kts 306°
2026-05-07 20:21 25.54343 -79.96573 11682 ft 333 kts 306°
2026-05-07 20:21 25.55679 -79.98658 11355 ft 329 kts 306°
2026-05-07 20:22 25.56978 -80.00686 11227 ft 316 kts 306°
2026-05-07 20:22 25.58232 -80.02644 11031 ft 308 kts 307°
2026-05-07 20:22 25.59461 -80.04568 10752 ft 305 kts 306°
2026-05-07 20:22 25.60684 -80.06483 10401 ft 304 kts 306°
2026-05-07 20:23 25.61891 -80.08377 10172 ft 297 kts 306°
2026-05-07 20:23 25.63070 -80.10227 9872 ft 293 kts 306°
2026-05-07 20:23 25.64245 -80.12070 9497 ft 291 kts 306°
2026-05-07 20:23 25.65388 -80.13910 9113 ft 290 kts 301°
2026-05-07 20:24 25.66272 -80.15917 8744 ft 288 kts 295°
2026-05-07 20:24 25.67113 -80.17911 8473 ft 283 kts 295°
2026-05-07 20:24 25.67947 -80.19872 8219 ft 280 kts 295°
2026-05-07 20:24 25.68776 -80.21814 7972 ft 278 kts 295°
2026-05-07 20:25 25.69598 -80.23744 7694 ft 276 kts 295°
2026-05-07 20:25 25.70413 -80.25659 7413 ft 274 kts 295°
2026-05-07 20:25 25.71046 -80.27634 7136 ft 271 kts 281°
2026-05-07 20:25 25.71174 -80.29705 6865 ft 268 kts 266°
2026-05-07 20:26 25.71060 -80.31758 6596 ft 266 kts 266°
2026-05-07 20:26 25.70958 -80.33798 6321 ft 264 kts 266°
2026-05-07 20:26 25.70863 -80.35830 6042 ft 262 kts 267°
2026-05-07 20:26 25.70768 -80.37856 5772 ft 259 kts 267°
2026-05-07 20:27 25.70675 -80.39829 5515 ft 258 kts 267°
2026-05-07 20:27 25.70581 -80.41801 5255 ft 256 kts 267°
2026-05-07 20:27 25.70473 -80.43756 5060 ft 255 kts 265°
2026-05-07 20:27 25.70311 -80.45738 5003 ft 256 kts 265°
2026-05-07 20:28 25.70146 -80.47686 5009 ft 253 kts 265°
2026-05-07 20:28 25.69977 -80.49645 5002 ft 251 kts 264°
2026-05-07 20:28 25.69814 -80.51558 4910 ft 254 kts 265°
2026-05-07 20:28 25.69644 -80.53521 4611 ft 251 kts 265°
2026-05-07 20:29 25.69485 -80.55422 4311 ft 253 kts 267°
2026-05-07 20:29 25.69766 -80.57354 4011 ft 253 kts 295°
2026-05-07 20:29 25.70849 -80.58840 3725 ft 254 kts 324°
2026-05-07 20:29 25.72480 -80.59566 3437 ft 256 kts 349°
2026-05-07 20:30 25.74258 -80.59652 3145 ft 259 kts 11°
2026-05-07 20:30 25.75886 -80.58839 3003 ft 260 kts 39°
2026-05-07 20:30 25.77070 -80.57319 3003 ft 263 kts 59°
2026-05-07 20:30 25.77665 -80.55446 3001 ft 251 kts 84°
2026-05-07 20:31 25.77750 -80.53585 3030 ft 232 kts 88°
2026-05-07 20:31 25.77803 -80.51815 3004 ft 224 kts 88°
2026-05-07 20:31 25.77851 -80.50117 3028 ft 215 kts 88°
2026-05-07 20:31 25.77898 -80.48480 3011 ft 211 kts 88°
2026-05-07 20:32 25.77949 -80.46891 2870 ft 198 kts 88°
2026-05-07 20:32 25.78009 -80.45442 2583 ft 178 kts 89°
2026-05-07 20:32 25.78069 -80.44115 2328 ft 164 kts 89°
2026-05-07 20:32 25.78123 -80.42888 2097 ft 154 kts 90°
2026-05-07 20:33 25.78175 -80.41716 1916 ft 150 kts 90°
2026-05-07 20:33 25.78225 -80.40571 1723 ft 146 kts 90°
2026-05-07 20:33 25.78274 -80.39457 1510 ft 145 kts 90°
2026-05-07 20:33 25.78321 -80.38342 1306 ft 143 kts 89°
2026-05-07 20:34 25.78343 -80.37239 1050 ft 144 kts 91°
2026-05-07 20:34 25.78407 -80.36148 868 ft 142 kts 89°
2026-05-07 20:34 25.78442 -80.35413 747 ft 141 kts 89°
2026-05-07 20:34 25.78484 -80.34353 534 ft 137 kts 91°
2026-05-07 20:35 25.78540 -80.33294 361 ft 137 kts 90°
2026-05-07 20:35 25.78583 -80.32239 163 ft 137 kts 91°
2026-05-07 20:35 25.78622 -80.31185 42 ft 136 kts 90°
2026-05-07 20:35 25.78653 -80.30237 22 ft 97 kts 87°
2026-05-07 20:36 25.78682 -80.29690 22 ft 49 kts 86°
2026-05-07 20:36 25.78701 -80.29358 21 ft 37 kts 83°
2026-05-07 20:36 25.78781 -80.29176 21 ft 20 kts 47°
2026-05-07 20:36 25.78824 -80.29037 20 ft 19 kts 86°
2026-05-07 20:37 25.78852 -80.28905 20 ft 17 kts 78°
2026-05-07 20:37 25.78871 -80.28771 19 ft 18 kts 86°
2026-05-07 20:37 25.78873 -80.28636 19 ft 17 kts 89°
2026-05-07 20:37 25.78874 -80.28517 22 ft 15 kts 88°
2026-05-07 20:38 25.78880 -80.28425 23 ft 7 kts 86°
2026-05-07 20:38 25.78883 -80.28373 23 ft 8 kts 86°
2026-05-07 20:38 25.78890 -80.28272 22 ft 18 kts 85°
2026-05-07 20:38 25.78904 -80.28098 25 ft 25 kts 85°
2026-05-07 20:39 25.78934 -80.27980 26 ft 15 kts 67°
2026-05-07 20:39 25.78938 -80.27861 24 ft 16 kts 88°
2026-05-07 20:39 25.78944 -80.27728 22 ft 18 kts 88°
2026-05-07 20:39 25.78960 -80.27595 22 ft 15 kts 77°
2026-05-07 20:40 25.79014 -80.27534 21 ft 12 kts
2026-05-07 20:40 25.79050 -80.27539 20 ft 3 kts 348°
2026-05-07 20:40 25.79075 -80.27568 21 ft 8 kts 285°
2026-05-07 20:40 25.79076 -80.27614 22 ft 3 kts 268°
2026-05-07 20:41 25.79076 -80.27615 22 ft 0 kts 268°